www.pogodaiklimat.ru

Погода и климат >> Архив погоды >> Россия >> Дагестан >> Махачкала


АРХИВ ПОГОДЫ в Махачкале

Время (UTC), дата Ветер
(напр.,м/с)
 
Видим.   Явления Облачность Т
(С)
Тd
(С)
f
(%)
Тe
(С)
Тes
(С)
Комфортность P
(гПа)
Po
(гПа)
Тmin
(С)
Tmax
(С)
R
(мм)
R24
(мм)
S
(см)
09 9.06 В 2 20 км ясно +27.3 +17.6 55 +31 +51 опасность
солнечного
удара
1019.5 1021.6
12 9.06 В 3 20 км ясно +26.1 +16.3 55 +30 +39 душно 1019.2 1021.3
15 9.06 В 3 н/о н/о +25.0 +15.8 57 +28 +28 жарко 1018.6 1020.7 +27.3
18 9.06 В 3 20 км ясно +25.0 +15.8 57 +28 +28 жарко 1018.6 1020.7
21 9.06 ЮВ 2 20 км ясно +22.6 +16.2 67 +27 +27 душно 1018.4 1020.5
00 10.06 ЮВ 2 20 км ясно +23.4 +7.9 37 +24 +24 комфорт 1017.5 1019.6
03 10.06 В 3 20 км ясно +23.7 +12.4 49 +26 +27 жарко 1018.0 1020.1 +22.3
06 10.06 В 4 20 км 3/0
[Ac As Ci fib]
+25.7 +16.2 56 +29 +36 душно 1017.9 1020.0 130
09 10.06 В 4 20 км 8/0
[Ac As Ci fib]
+26.6 +16.7 55 +30 +36 душно 1017.1 1019.2
12 10.06 В 6-11
{11}
20 км 4/0
[Ac As Ci fib]
+26.3 +16.5 55 +30 +33 душно 1015.6 1017.7
15 10.06 В 4
{11}
20 км 8/0
[Ac As Ci fib]
+24.6 +16.3 60 +28 +28 душно 1014.7 1016.8 +27.0
18 10.06 ЮВ 5-11
{13}
20 км ясно +23.7 +16.3 63 +27 +27 жарко 1014.5 1016.6
21 10.06 ЮВ 6
{12}
20 км ясно +22.5 +16.7 70 +27 +27 душно 1012.8 1014.9 180
00 11.06 ЮВ 4 20 км ясно +22.1 +18.2 79 +27 +27 душно 1012.0 1014.1
03 11.06 ЮВ 4 20 км 8/3 600 м
[Sc Ac As Ci fib]
+23.0 +18.9 78 +29 +30 очень
душно
1012.0 1014.1 +21.8
06 11.06 В 4 20 км 9/0
[Ac cast Ci fib]
+24.9 +19.8 73 +30 +36 душно 1011.9 1013.9
09 11.06 В 5
{11}
20 км ясно +25.8 +19.7 69 +31 +42 очень
душно
1011.0 1013.1
12 11.06 В 5
{11}
20 км 6/0
[Ci fib]
+25.8 +19.2 67 +31 +36 очень
душно
1009.0 1011.0
15 11.06 В 5-11
{13}
20 км 6/0
[Ci fib]
+25.0 +17.8 64 +29 +30 душно 1008.4 1010.5 +26.3
18 11.06 ЮВ 4
{12}
10 км 6/0
[Ci fib]
+23.4 +18.1 72 +29 +29 душно 1009.3 1011.4
21 11.06 В 3
{11}
10 км 8/0
[Ci fib]
+22.6 +18.1 76 +28 +28 душно 1009.3 1011.4
00 12.06 ЮВ 2 10 км {гроза} 9/0
[Ac cast Ci fib]
+22.4 +16.7 70 +27 +27 душно 1008.6 1010.7
03 12.06 В 3 10 км гроза, ливневой дождь 10/8 600 м
[Cb cap Ac As]
+21.5 +15.5 69 +25 +25 комфорт 1010.7 1012.8 +21.5 0.0
06 12.06 В 1 20 км {гроза} 9/6 600 м
[Cb calv Ac trans Ci fib]
+23.0 +17.3 70 +28 +32 душно 1011.0 1013.1 +21.4
09 12.06 ЮВ 4 20 км {ливн. осадки} 9/3 600 м
[Cb calv Ac trans Ci fib]
+25.8 +19.6 69 +31 +37 очень
душно
1009.7 1011.7
12 12.06 В 5-12
{14}
20 км {ливн. осадки} 8/3 600 м
[Cu hum Ac trans Ci fib]
+25.2 +18.0 64 +30 +32 душно 1008.0 1010.0
15 12.06 ЮВ 7-13
{13}
20 км 9/8 600 м
[Cb calv Ac trans Ci fib]
+24.6 +15.7 58 +28 +28 душно 1007.8 1009.8 +26.1 0.0
18 12.06 ЮВ 2
{13}
20 км 9/4 600 м
[Cb calv Ac trans Ci fib]
+24.1 +17.2 65 +28 +28 душно 1009.3 1011.3 70
21 12.06 ЮВ 2 20 км 8/3 600 м
[Cb calv Ac trans Ci fib]
+23.7 +18.7 74 +28 +28 душно 1008.5 1010.6
00 13.06 В 2 20 км 9/6 600 м
[Cb calv Ac trans Ci fib]
+23.0 +19.1 79 +29 +29 очень
душно
1008.5 1010.6
03 13.06 ЮВ 2 20 км 8/6 600 м
[Cb calv Ac trans Ci fib]
+25.9 +13.0 45 +28 +28 жарко 1008.0 1010.0 +22.7
06 13.06 В 3 20 км 8/0
[Ac As Ci fib]
+26.6 +17.9 59 +31 +36 душно 1008.2 1010.2
09 13.06 В 3
{10}
20 км 3/0
[Ac As Ci fib]
+27.5 +17.9 56 +32 +45 очень
душно
1008.3 1010.3
12 13.06 В 2 20 км 8/0
[Ac As Ci fib]
+26.3 +18.8 63 +31 +36 душно 1009.0 1011.1
15 13.06 В 2 20 км 8/4 600 м
[Sc Ac As Ci fib]
+25.7 +15.7 54 +29 +29 душно 1009.5 1011.6 +28.6
18 13.06 ЮВ 1 20 км 8/0
[Ac As Ci fib]
+24.2 +15.7 59 +27 +27 жарко 1009.6 1011.7
21 13.06 З 1 20 км 8/0
[Ac As Ci fib]
+20.0 +11.4 58 +23 +23 комфорт 1010.4 1012.5
00 14.06 З 2 20 км 8/0
[Ac As Ci fib]
+21.8 +11.2 51 +24 +24 комфорт 1011.3 1013.4
03 14.06 З 3 20 км 6/0
[Ac As Ci fib]
+24.6 +13.6 50 +27 +28 жарко 1012.4 1014.4 +20.0
06 14.06 СЗ 4 20 км 3/0
[Ci fib]
+30.0 +10.0 29 +30 +38 жарко 1013.1 1015.1
09 14.06 СВ 3 10 км 3/0
[Ci fib]
+27.7 +20.6 65 +34 +50 очень
душно
1014.3 1016.4
12 14.06 В 3 10 км 3/1 600 м
[Cu hum Ac cast]
+26.8 +18.7 61 +32 +39 очень
душно
1015.5 1017.5
15 14.06 В 3 10 км 6/0
[Ci fib]
+24.0 +18.0 69 +28 +29 душно 1015.4 1017.5 +30.5
18 14.06 В 3 10 км 8/0
[Ci fib]
+22.6 +17.1 71 +27 +27 душно 1015.9 1018.0
21 14.06 В 3 10 км 6/3 600 м
[Sc diur, vesp Ac cast Ci fib]
+22.4 +16.9 71 +27 +27 душно 1015.3 1017.4
00 15.06 ЮВ 2 10 км 3/0
[Ci fib]
+22.0 +16.7 72 +26 +26 душно 1014.5 1016.6
03 15.06 ЮВ 2 10 км 3/3 600 м
[Cu hum]
+22.7 +17.4 72 +28 +29 душно 1014.7 1016.8 +21.5
06 15.06 В 5 10 км ясно +24.8 +16.2 59 +28 +35 жарко 1015.0 1017.1
09 15.06 В 5-10
{11}
20 км ясно +25.4 +14.2 50 +28 +38 жарко 1013.9 1016.0
12 15.06 В 5
{11}
20 км 6/0
[Ci fib]
+25.3 +15.2 54 +28 +34 жарко 1012.7 1014.8
15 15.06 В 4
{10}
20 км 8/0
[Ac cast Ci fib]
+23.9 +15.8 60 +27 +28 жарко 1011.8 1013.9 +25.7
18 15.06 ЮВ 3
{10}
20 км 8/0
[Ac cast Ci fib]
+22.4 +16.6 70 +27 +27 душно 1011.9 1014.0
21 15.06 ЮВ 3 20 км 8/0
[Ac cast Ci fib]
+22.0 +15.5 67 +26 +26 душно 1011.5 1013.6
00 16.06 ЮВ 2 20 км 8/0
[Ac cast Ci fib]
+21.6 +15.3 67 +25 +25 комфорт 1010.9 1013.0
03 16.06 ЮВ 4 н/о н/о +22.3 +16.9 71 +27 +27 душно 1010.1 1012.2 +21.5 0.0
06 16.06 В 3 20 км 3/0
[Ci fib]
+26.2 +17.6 59 +30 +41 душно 1009.3 1011.4

 

Местоположение метеостанции Махачкала (Дагестан, Россия): широта 43.02 долгота 47.48 высота над уровнем моря -19 м.

В архиве по умолчанию представлена погода в Махачкале за последнюю неделю. Архивные данные за месяц целиком и за предыдущие месяцы, начиная с января 2011 года, Вы можете получить, выбрав интересующий диапазон дат из раскрывающегося списка и нажав кнопку "Ввод!".


*Определитесь, кто Вы:
робот инопланетянин человек

Внимание! Время в таблицах - всемирное. Для получения местного времени необходимо прибавить поправку, которая равна 3 ч.

Смотрите также архив погоды в соседних городах и на ближайших метеорологических станциях:

Погода в Буйнакске (Дагестан, Россия) (37 км)
Погода в Сергокале (Дагестан, Россия) (65 км)
Погода в Изберге (Дагестан, Россия) (65 км)
Погода в Куппе (Дагестан, Россия) (73 км)
Погода в Хасавюрте (Дагестан, Россия) (77 км)
Погода в Гунибе (Дагестан, Россия) (81 км)
Погода в Хунзахе (Дагестан, Россия) (81 км)
Погода в Бабаюрте (Дагестан, Россия) (86 км)
Погода в Кумухе (Дагестан, Россия) (104 км)
Погода в Шелковской (Чечня, Россия) (106 км)

Пояснения к столбцам:

Ветер - указаны скорость ветра в м/с - средняя за 10 мин, порывы в срок и между сроками (в фигурных скобках) и направление, откуда дует ветер: С - северный, СВ - северо-восточный, В - восточный, ЮВ - юго-восточный, Ю - южный, ЮЗ - юго-западный, З - западный, СЗ - северо-западный.
Видимость - горизонтальная дальность видимости в метрах или километрах. При видимости от 1 до 10 км при отсутствии осадков обычно наблюдается дымка, при ухудшении видимости до 1 км и менее - туман. В сухую погоду видимость может ухудшаться дымом, пылью или мглою.
Явления - указаны атмосферные явления, наблюдавшиеся в срок или в последний час перед сроком; фигурными скобками обозначены явления, наблюдавшиеся между сроками (за 1-3 часа до срока); квадратными скобками обозначены град или гололедные отложения с указанием их диаметра в мм.
Облачность - указаны через наклонную черту общая и нижняя облачность в баллах и высота нижней границы облаков в метрах; квадратными скобками обозначены формы облаков: Ci - перистые, Cs - перисто-слоистые, Cc - перисто-кучевые, Ac - высококучевые, As - высокослоистые, Sc - слоисто-кучевые, Ns - слоисто-дождевые, Cu - кучевые, Cb - кучево-дождевые. Подробнее классификацию облаков см. в Атласе облаков (PDF).
T - Температура воздуха - температура, измеренная на высоте 2 м над землей.
Td - Температура точки росы - температура, при понижении до которой содержащийся в воздухе водяной пар достигнет насыщения.
f - Относительная влажность воздуха - влажноcть воздуха, измеренная на высоте 2 м над землей.
Te - Эффективная температура - температура, которую ощущает одетый по сезону человек в тени. Характеристика душности погоды. При расчете учитывается влияние влажности воздуха и скорости ветра на теплоощущения человека.
Tes - Эффективная температура на солнце - температура, которую ощущает человек, с поправкой на солнечный нагрев. Характеристика знойности погоды. Зависит от высоты солнца над горизонтом, облачности и скорости ветра. Ночью, в пасмурную погоду, а также при ветре 12 м/с и более поправка равна нулю.
P - Атмосферное давление - приведенное к уровню моря атмосферное давление.
Po - Атмосферное давление - измеренное на уровне метеостанции атмосферное давление.
Tmin - Минимальная температура - минимум температуры воздуха на высоте 2 м над землей.
Tmax - Максимальная температура - максимум температуры воздуха на высоте 2 м над землей.
R - Количество осадков - Количество выпавших осадков за период времени, мм. При наведении курсора мыши на число - период времени, за который выпало указанное количество осадков.
R24 - Количество осадков - Количество выпавших осадков за 24 часа, мм.
S - Снежный покров - Высота снежного покрова, см. При наведении курсора мыши на число - состояние снежного покрова и степень покрытия местности в баллах.